Tracking 19795 objects as of 20-Jul-2019
HD Live streaming from Space Station
objects crossing your sky now

SL-24 R/B

Track SL-24 R/B now!
10-day predictions


NORAD ID: 40047
Int'l Code: 2014-033AP
Perigee: 616.4 km
Apogee: 1,459.1 km
Inclination: 97.9 °
Period: 105.8 minutes
Semi major axis: 7408 km
RCS: Unknown
Launch date: June 19, 2014
Source: Commonwealth of Independent States (former USSR) (CIS)
Launch site: Orenburg, Russia (OREN)

Note: This is a ROCKET BODY
aabbcc
Your satellite tracking list
Your tracking list is empty




NASA's NSSDC Master Catalog

Two Line Element Set (TLE):
1 40047U 14033AP  19200.86065758 -.00000029 +00000-0 +57264-5 0  9994
2 40047 097.8984 133.5568 0568681 239.5226 114.8593 13.61404927252519
Source of the keplerian elements: AFSPC